TimeCDT,TemperatureF,Dew PointF,Humidity,Sea Level PressureIn,VisibilityMPH,Wind Direction,Wind SpeedMPH,Gust SpeedMPH,PrecipitationIn,Events,Conditions,WindDirDegrees,DateUTC
12:15 AM,32.0,30.2,93,29.79,1.2,WNW,11.5,21.9,N/A,Snow,Light Snow,290,2013-03-25 05:15:00
12:35 AM,32.0,30.2,93,29.79,2.5,WNW,15.0,19.6,N/A,Snow,Light Snow,290,2013-03-25 05:35:00
12:55 AM,32.0,30.2,93,29.80,3.0,WNW,15.0,21.9,N/A,Snow,Light Snow,290,2013-03-25 05:55:00
1:15 AM,32.0,30.2,93,29.81,4.0,WNW,13.8,20.7,N/A,Snow,Light Snow,290,2013-03-25 06:15:00
1:35 AM,32.0,30.2,93,29.81,5.0,WNW,13.8,20.7,N/A,Snow,Light Snow,290,2013-03-25 06:35:00
1:55 AM,32.0,30.2,93,29.82,4.0,WNW,13.8,19.6,N/A,Snow,Light Snow,290,2013-03-25 06:55:00
2:15 AM,32.0,30.2,93,29.82,4.0,West,16.1,23.0,N/A,Snow,Light Snow,280,2013-03-25 07:15:00
2:35 AM,32.0,30.2,93,29.82,4.0,WNW,13.8,19.6,N/A,Snow,Light Snow,290,2013-03-25 07:35:00
2:55 AM,32.0,30.2,93,29.81,4.0,WNW,15.0,20.7,N/A,Snow,Light Snow,290,2013-03-25 07:55:00
3:15 AM,32.0,28.4,87,29.81,4.0,WNW,13.8,20.7,N/A,Snow,Light Snow,290,2013-03-25 08:15:00
3:35 AM,32.0,28.4,87,29.82,4.0,WNW,16.1,23.0,N/A,Snow,Light Snow,290,2013-03-25 08:35:00
3:55 AM,32.0,28.4,87,29.82,5.0,WNW,13.8,20.7,N/A,Snow,Light Snow,290,2013-03-25 08:55:00
4:15 AM,32.0,28.4,87,29.82,10.0,WNW,13.8,21.9,N/A,,Overcast,290,2013-03-25 09:15:00
4:35 AM,32.0,28.4,87,29.83,10.0,WNW,13.8,21.9,N/A,,Overcast,290,2013-03-25 09:35:00
4:55 AM,32.0,28.4,87,29.83,10.0,WNW,15.0,24.2,N/A,,Overcast,290,2013-03-25 09:55:00
5:15 AM,32.0,28.4,87,29.83,10.0,WNW,17.3,-,N/A,,Overcast,290,2013-03-25 10:15:00
5:35 AM,32.0,28.4,87,29.83,10.0,WNW,15.0,20.7,N/A,,Overcast,290,2013-03-25 10:35:00
5:55 AM,32.0,28.4,87,29.84,10.0,WNW,15.0,19.6,N/A,,Overcast,290,2013-03-25 10:55:00
6:15 AM,32.0,28.4,87,29.84,10.0,WNW,16.1,21.9,N/A,,Overcast,290,2013-03-25 11:15:00
6:35 AM,32.0,28.4,87,29.85,10.0,WNW,15.0,24.2,N/A,,Overcast,290,2013-03-25 11:35:00
6:55 AM,32.0,28.4,87,29.86,10.0,WNW,16.1,21.9,N/A,,Overcast,290,2013-03-25 11:55:00
7:15 AM,32.0,28.4,87,29.88,10.0,West,16.1,20.7,N/A,,Overcast,280,2013-03-25 12:15:00
7:35 AM,30.2,28.4,93,29.89,10.0,West,12.7,20.7,N/A,,Overcast,280,2013-03-25 12:35:00
7:55 AM,30.2,26.6,86,29.89,10.0,West,15.0,21.9,N/A,,Overcast,270,2013-03-25 12:55:00
8:15 AM,30.2,26.6,86,29.90,7.0,West,17.3,23.0,N/A,,Overcast,270,2013-03-25 13:15:00
8:35 AM,30.2,26.6,86,29.92,3.0,West,13.8,20.7,N/A,Snow,Light Snow,280,2013-03-25 13:35:00
8:55 AM,30.2,26.6,86,29.92,3.0,West,18.4,21.9,N/A,Snow,Light Snow,270,2013-03-25 13:55:00
9:15 AM,30.2,26.6,86,29.93,4.0,West,12.7,24.2,N/A,,Overcast,280,2013-03-25 14:15:00
9:35 AM,30.2,26.6,86,29.93,5.0,West,16.1,23.0,N/A,,Overcast,270,2013-03-25 14:35:00
9:55 AM,30.2,26.6,86,29.94,4.0,West,17.3,23.0,N/A,,Overcast,280,2013-03-25 14:55:00
10:15 AM,30.2,28.4,93,29.95,4.0,West,13.8,20.7,N/A,,Overcast,280,2013-03-25 15:15:00
10:35 AM,32.0,28.4,87,29.96,4.0,West,11.5,18.4,N/A,Snow,Light Snow,280,2013-03-25 15:35:00
10:55 AM,32.0,28.4,87,29.97,5.0,West,11.5,19.6,N/A,,Overcast,280,2013-03-25 15:55:00
11:15 AM,32.0,28.4,87,29.98,7.0,West,10.4,-,N/A,,Overcast,280,2013-03-25 16:15:00
11:35 AM,33.8,28.4,81,29.98,10.0,WNW,10.4,18.4,N/A,,Overcast,290,2013-03-25 16:35:00
11:55 AM,33.8,28.4,81,29.98,7.0,West,13.8,21.9,N/A,,Overcast,280,2013-03-25 16:55:00
12:15 PM,33.8,30.2,87,29.99,4.0,WNW,10.4,19.6,N/A,Snow,Light Snow,290,2013-03-25 17:15:00
12:35 PM,33.8,30.2,87,29.99,4.0,WNW,11.5,18.4,N/A,Snow,Light Snow,290,2013-03-25 17:35:00
12:55 PM,33.8,30.2,87,30.00,5.0,West,15.0,20.7,N/A,Snow,Light Snow,280,2013-03-25 17:55:00
1:15 PM,33.8,30.2,87,30.00,7.0,West,13.8,18.4,N/A,Snow,Light Snow,280,2013-03-25 18:15:00
1:35 PM,33.8,30.2,87,30.00,10.0,West,16.1,21.9,N/A,Snow,Light Snow,280,2013-03-25 18:35:00
1:55 PM,33.8,30.2,87,30.00,10.0,West,12.7,20.7,N/A,Snow,Light Snow,280,2013-03-25 18:55:00
2:15 PM,35.6,30.2,81,30.00,10.0,West,13.8,18.4,N/A,,Overcast,280,2013-03-25 19:15:00
2:35 PM,35.6,30.2,81,30.01,10.0,WNW,11.5,18.4,N/A,,Overcast,290,2013-03-25 19:35:00
2:55 PM,35.6,30.2,81,30.02,5.0,WNW,9.2,-,N/A,Snow,Light Snow,290,2013-03-25 19:55:00
3:15 PM,35.6,28.4,75,30.02,7.0,WNW,11.5,19.6,N/A,Snow,Light Snow,290,2013-03-25 20:15:00
3:35 PM,35.6,28.4,75,30.03,10.0,NW,13.8,19.6,N/A,Snow,Light Snow,320,2013-03-25 20:35:00
3:55 PM,35.6,28.4,75,30.03,10.0,NW,8.1,18.4,N/A,,Overcast,310,2013-03-25 20:55:00
4:15 PM,35.6,30.2,81,30.04,7.0,West,11.5,20.7,N/A,Snow,Light Snow,270,2013-03-25 21:15:00
4:35 PM,35.6,30.2,81,30.05,10.0,WNW,10.4,-,N/A,,Overcast,300,2013-03-25 21:35:00
4:55 PM,35.6,30.2,81,30.05,10.0,WNW,12.7,17.3,N/A,,Overcast,300,2013-03-25 21:55:00
5:15 PM,35.6,30.2,81,30.06,10.0,WNW,9.2,-,N/A,,Overcast,300,2013-03-25 22:15:00
5:35 PM,35.6,30.2,81,30.07,10.0,WNW,10.4,16.1,N/A,,Mostly Cloudy,300,2013-03-25 22:35:00
5:55 PM,35.6,30.2,81,30.08,10.0,NW,11.5,-,N/A,,Overcast,320,2013-03-25 22:55:00
6:15 PM,35.6,28.4,75,30.08,10.0,NW,12.7,17.3,N/A,,Overcast,320,2013-03-25 23:15:00
6:35 PM,33.8,28.4,81,30.09,10.0,NW,12.7,18.4,N/A,,Mostly Cloudy,320,2013-03-25 23:35:00
6:55 PM,33.8,30.2,87,30.11,7.0,NW,9.2,-,N/A,Snow,Light Snow,320,2013-03-25 23:55:00
7:15 PM,33.8,28.4,81,30.12,10.0,NW,8.1,17.3,N/A,,Overcast,310,2013-03-26 00:15:00
7:35 PM,33.8,28.4,81,30.12,10.0,WNW,5.8,-,N/A,,Overcast,300,2013-03-26 00:35:00
7:55 PM,33.8,28.4,81,30.13,10.0,NW,8.1,-,N/A,,Mostly Cloudy,310,2013-03-26 00:55:00
8:15 PM,33.8,26.6,75,30.14,10.0,NW,6.9,-,N/A,,Overcast,310,2013-03-26 01:15:00
8:35 PM,33.8,26.6,75,30.15,10.0,NW,6.9,-,N/A,,Overcast,310,2013-03-26 01:35:00
8:55 PM,33.8,26.6,75,30.15,10.0,NW,6.9,-,N/A,,Overcast,310,2013-03-26 01:55:00
9:15 PM,33.8,26.6,75,30.16,10.0,WNW,9.2,-,N/A,,Overcast,300,2013-03-26 02:15:00
9:35 PM,33.8,26.6,75,30.16,10.0,WNW,9.2,17.3,N/A,,Overcast,300,2013-03-26 02:35:00
9:55 PM,33.8,26.6,75,30.17,10.0,WNW,10.4,-,N/A,,Overcast,290,2013-03-26 02:55:00
10:15 PM,33.8,28.4,81,30.17,10.0,WNW,10.4,-,N/A,,Overcast,290,2013-03-26 03:15:00
10:35 PM,33.8,26.6,75,30.18,10.0,WNW,9.2,-,N/A,,Overcast,290,2013-03-26 03:35:00
10:55 PM,32.0,26.6,80,30.18,10.0,WNW,8.1,-,N/A,,Overcast,290,2013-03-26 03:55:00
11:15 PM,32.0,26.6,80,30.18,10.0,WNW,8.1,-,N/A,,Overcast,300,2013-03-26 04:15:00
11:35 PM,32.0,26.6,80,30.19,10.0,WNW,6.9,-,N/A,,Overcast,300,2013-03-26 04:35:00
11:55 PM,32.0,26.6,80,30.19,10.0,WNW,4.6,-,N/A,,Overcast,290,2013-03-26 04:55:00